�������r�C�����j�^�v���󋵏��
Date,Time,5�C6���@���p�r�C��,����,����(m/s)
2022/03/11,00:00,4.0,��,6.2
2022/03/11,00:10,3.9,��,5.3
2022/03/11,00:20,4.1,��,5.3
2022/03/11,00:30,4.1,��,3.7
2022/03/11,00:40,4.0,��,3.7
2022/03/11,00:50,4.1,��,4.0
2022/03/11,01:00,3.9,��,4.6
2022/03/11,01:10,4.0,��,6.5
2022/03/11,01:20,3.8,��,8.4
2022/03/11,01:30,3.9,��,7.4
2022/03/11,01:40,3.9,��,6.7
2022/03/11,01:50,4.0,��,6.7
2022/03/11,02:00,3.9,��,5.2
2022/03/11,02:10,3.8,��,4.5
2022/03/11,02:20,3.9,��,4.0
2022/03/11,02:30,4.0,��쐼,4.1
2022/03/11,02:40,3.9,��,4.6
2022/03/11,02:50,4.0,��,6.2
2022/03/11,03:00,3.9,��,6.2
2022/03/11,03:10,4.1,��,6.8
2022/03/11,03:20,4.0,��,6.3
2022/03/11,03:30,4.2,��,6.1
2022/03/11,03:40,4.0,��,6.2
2022/03/11,03:50,4.0,��,6.2
2022/03/11,04:00,4.1,��,5.9
2022/03/11,04:10,4.0,��,4.9
2022/03/11,04:20,3.9,��,4.4
2022/03/11,04:30,4.1,��,5.3
2022/03/11,04:40,3.9,��,5.4
2022/03/11,04:50,3.8,��,5.8
2022/03/11,05:00,4.1,��,6.1
2022/03/11,05:10,3.9,��쐼,5.9
2022/03/11,05:20,4.0,��쐼,4.8
2022/03/11,05:30,4.2,��쐼,4.5
2022/03/11,05:40,4.0,��쐼,6.1
2022/03/11,05:50,4.0,��쐼,5.6
2022/03/11,06:00,4.0,��쐼,5.7
2022/03/11,06:10,4.1,��쐼,6.0
2022/03/11,06:20,3.9,��,4.3
2022/03/11,06:30,4.0,��,6.4
2022/03/11,06:40,4.1,��,6.9
2022/03/11,06:50,4.1,��,7.8
2022/03/11,07:00,4.0,��,7.6
2022/03/11,07:10,4.1,��,7.5
2022/03/11,07:20,4.1,��,6.9
2022/03/11,07:30,4.0,��,7.4
2022/03/11,07:40,4.0,��,6.1
2022/03/11,07:50,4.0,��,5.0
2022/03/11,08:00,4.0,��,7.0
2022/03/11,08:10,4.0,��,6.9
2022/03/11,08:20,4.1,��쓌,6.3
2022/03/11,08:30,4.0,��쓌,6.0
2022/03/11,08:40,4.1,��쓌,5.2
2022/03/11,08:50,3.9,��,6.7
2022/03/11,09:00,4.0,��,5.9
2022/03/11,09:10,4.0,��,4.7
2022/03/11,09:20,4.1,��,4.6
2022/03/11,09:30,3.9,��,6.0
2022/03/11,09:40,3.8,��,7.0
2022/03/11,09:50,4.1,��쓌,9.7
2022/03/11,10:00,3.9,��쓌,9.2
2022/03/11,10:10,4.0,��쓌,7.5
2022/03/11,10:20,4.1,��쓌,9.3
2022/03/11,10:30,4.0,��쓌,10.4
2022/03/11,10:40,4.2,��쓌,9.1
2022/03/11,10:50,4.0,��쓌,7.1
2022/03/11,11:00,4.0,��,6.7
2022/03/11,11:10,3.9,��쓌,7.4
2022/03/11,11:20,4.1,��쓌,10.2
2022/03/11,11:30,4.0,��쓌,9.4
2022/03/11,11:40,4.1,��,11.0
2022/03/11,11:50,4.0,��쓌,11.9
2022/03/11,12:00,4.0,��쓌,10.6
2022/03/11,12:10,4.0,��,10.7
2022/03/11,12:20,3.9,��,9.7
2022/03/11,12:30,4.0,��,10.0
2022/03/11,12:40,3.8,��,9.1
2022/03/11,12:50,4.0,��,9.4
2022/03/11,13:00,4.0,��,8.6
2022/03/11,13:10,4.0,��쓌,9.4
2022/03/11,13:20,4.2,��쓌,8.9
2022/03/11,13:30,4.1,��쓌,9.1
2022/03/11,13:40,4.1,��쓌,9.0
2022/03/11,13:50,4.2,��,7.8
2022/03/11,14:00,3.9,��,8.1
2022/03/11,14:10,3.9,��,10.5
2022/03/11,14:20,4.0,��쓌,9.6
2022/03/11,14:30,4.1,��,7.7
2022/03/11,14:40,4.1,��,8.9
2022/03/11,14:50,3.9,��,10.3
2022/03/11,15:00,4.0,��,9.1
2022/03/11,15:10,4.0,��,8.6
2022/03/11,15:20,4.2,��,10.6
2022/03/11,15:30,4.1,��쓌,13.8
2022/03/11,15:40,4.2,��쓌,11.7
2022/03/11,15:50,4.0,��쓌,11.8
2022/03/11,16:00,4.1,��쓌,11.9
2022/03/11,16:10,4.1,��쓌,10.5
2022/03/11,16:20,3.9,��,8.0
2022/03/11,16:30,3.9,��,8.2
2022/03/11,16:40,4.0,��쓌,8.3
2022/03/11,16:50,3.9,��,6.3
2022/03/11,17:00,4.1,��,6.9
2022/03/11,17:10,3.9,��,7.7
2022/03/11,17:20,3.9,��,7.7
2022/03/11,17:30,3.8,��,8.2
2022/03/11,17:40,4.1,��,8.7
2022/03/11,17:50,4.0,��,8.1
2022/03/11,18:00,4.0,��,7.3
2022/03/11,18:10,4.1,��쐼,6.6
2022/03/11,18:20,4.0,��쐼,6.1
2022/03/11,18:30,4.1,��쐼,5.8
2022/03/11,18:40,4.0,�쐼,5.7
2022/03/11,18:50,4.1,��쐼,5.7
2022/03/11,19:00,4.2,�쐼,6.2
2022/03/11,19:10,3.8,�쐼,5.2
2022/03/11,19:20,3.9,���쐼,6.5
2022/03/11,19:30,4.0,���쐼,6.9
2022/03/11,19:40,4.0,���쐼,8.2
2022/03/11,19:50,4.0,���쐼,7.9
2022/03/11,20:00,4.1,��,7.7
2022/03/11,20:10,4.1,��,8.0
2022/03/11,20:20,3.9,��,8.6
2022/03/11,20:30,4.0,��,8.4
2022/03/11,20:40,4.0,��,8.5
2022/03/11,20:50,3.9,��,8.4
2022/03/11,21:00,4.1,��,8.6
2022/03/11,21:10,3.9,��,9.3
2022/03/11,21:20,4.0,���k��,8.3
2022/03/11,21:30,4.0,���k��,9.2
2022/03/11,21:40,4.1,���k��,10.2
2022/03/11,21:50,3.9,��,7.8
2022/03/11,22:00,3.9,��,9.4
2022/03/11,22:10,4.1,��,8.8
2022/03/11,22:20,4.1,��,8.8
2022/03/11,22:30,4.0,��,10.0
2022/03/11,22:40,4.0,��,10.7
2022/03/11,22:50,4.1,��,8.8
2022/03/11,23:00,4.0,���쐼,9.3
2022/03/11,23:10,4.0,�쐼,4.8
2022/03/11,23:20,3.9,���쐼,4.7
2022/03/11,23:30,4.1,�쐼,2.9
2022/03/11,23:40,4.0,�쐼,2.6
2022/03/11,23:50,4.1,���쐼,0.9
